This is the latest recevied weather packets stored in our database for station/object KC9TVS-13. If no packets are shown the sender has not sent any weather packets the latest 10 day(s).
| Time | Temp. | Humidity | Pressure | Rain* | Wind** | Luminosity | Snow |
|---|---|---|---|---|---|---|---|
| 1788480985 | 27.78° C | 85% | 1013.4 hPa | 0 mm | - | 0 W/m² | - |
| 1788480686 | 27.78° C | 85% | 1013.5 hPa | 0 mm | - | 0 W/m² | - |
| 1788480381 | 27.78° C | 85% | 1013.6 hPa | 0 mm | - | 0 W/m² | - |
| 1788480083 | 27.78° C | 85% | 1013.5 hPa | 0 mm | - | 0 W/m² | - |
| 1788479783 | 27.78° C | 85% | 1013.5 hPa | 0 mm | - | 9 W/m² | - |
| 1788479483 | 27.78° C | 84% | 1013.5 hPa | 0 mm | - | 12 W/m² | - |
| 1788479182 | 27.78° C | 84% | 1013.3 hPa | 0 mm | - | 21 W/m² | - |
| 1788478882 | 27.78° C | 84% | 1013.1 hPa | 0 mm | - | 26 W/m² | - |
| 1788478581 | 27.78° C | 84% | 1012.9 hPa | 0 mm | - | 33 W/m² | - |
| 1788478283 | 27.78° C | 83% | 1012.8 hPa | 0 mm | - | 37 W/m² | - |
| 1788477983 | 27.78° C | 82% | 1012.7 hPa | 0 mm | - | 39 W/m² | - |
| 1788477683 | 27.78° C | 82% | 1012.7 hPa | 0 mm | - | 40 W/m² | - |
| 1788477381 | 28.33° C | 81% | 1012.5 hPa | 0 mm | - | 40 W/m² | - |
| 1788477081 | 28.33° C | 80% | 1012.4 hPa | 0 mm | - | 39 W/m² | - |
| 1788476780 | 28.33° C | 79% | 1012.4 hPa | 0 mm | - | 39 W/m² | - |
| 1788476482 | 28.33° C | 79% | 1012.6 hPa | 0 mm | - | 40 W/m² | - |
| 1788476181 | 28.89° C | 80% | 1012.7 hPa | 0 mm | - | 47 W/m² | - |
| 1788475880 | 28.89° C | 82% | 1012.8 hPa | 0 mm | - | 54 W/m² | - |
| 1788475580 | 28.89° C | 83% | 1012.8 hPa | 0 mm | - | 60 W/m² | - |
| 1788475281 | 28.89° C | 83% | 1012.8 hPa | 0 mm | - | 70 W/m² | - |
| 1788474988 | 28.89° C | 83% | 1012.9 hPa | 0 mm | - | 72 W/m² | - |
| 1788474680 | 28.89° C | 83% | 1012.8 hPa | 0 mm | - | 74 W/m² | - |
| 1788474380 | 28.89° C | 83% | 1012.9 hPa | 0 mm | - | 72 W/m² | - |
| 1788474081 | 28.89° C | 83% | 1012.9 hPa | 0 mm | - | 70 W/m² | - |
| 1788473781 | 28.89° C | 83% | 1012.9 hPa | 0 mm | - | 69 W/m² | - |
* Rain latest hour (hover to see other rain measurements)
** Current wind speed in m/s (hover to see current wind gust speed)